Courir à Pau

Class.NomPrénomSexeCatTempsVitesse
1LASSERREKEVINMSE00:31:5318,82 km/h
2GOBINSylvainMSE00:32:0118,74 km/h
3SANCHEZ GARCIANACHOMSE00:32:0718,68 km/h
4DUCASSEGuillaumeMV100:32:1018,65 km/h
5JORROJulienMSE00:32:3418,42 km/h
6IRIGOYJulienFSE00:32:5618,22 km/h
7BENSONDARRENMV100:33:0718,12 km/h
8LAROCHEDavidMSE00:33:3817,84 km/h
9JACQUESFabriceMSE00:33:3817,84 km/h
10DEBRAYSylvainMV100:33:4517,78 km/h
11MARTYBriceMSE00:33:4617,77 km/h
12RUEGrégoryMSE00:33:4717,76 km/h
13BELLUCFredericMV100:33:5417,7 km/h
14LASSERELudovicMSE00:33:5717,67 km/h
15LAHORGUEJean-FrançoisMSE00:33:5917,66 km/h
16MAGNOULudovicMSE00:34:0117,64 km/h
17LASSERRECYRILMSE00:34:0517,6 km/h
18BIDAUROMAINMSE00:34:0517,6 km/h
19BEZIATLaurentMSE00:34:1517,52 km/h
20MOLLÉMathieuMSE00:34:1517,52 km/h
21DAS DORESJérômeMSE00:34:2717,42 km/h
22LAFAGEPhilippeMV100:34:2817,41 km/h
23BEAUFILSFabienMSE00:34:2917,4 km/h
24LARTIGUEXavierMSE00:34:3117,38 km/h
25TABARANTNicolasMSE00:34:4617,26 km/h
26LAFERRERESylvainMES00:34:5217,21 km/h
27ROBERTJeremyMES00:34:5717,17 km/h
28MONTEGUTAlexandreMSE00:35:0617,09 km/h
29DAROCHANicolasMSE00:35:1117,05 km/h
30AFIOSremyMSE00:35:1217,05 km/h
31CLAVERIEPatrickMV100:35:3416,87 km/h
32PASQUETFrancois-XavierMSE00:35:3716,85 km/h
33LABARTHEJérômeMV100:35:4716,77 km/h
34JUNQUASJeremyMSE00:35:5116,74 km/h
35ROUBERTOUJulienMSE00:35:5316,72 km/h
36DOBYRenaudMSE00:35:5616,7 km/h
37GODYJamesMSE00:36:0116,66 km/h
38MOUNAIXJean BaptisteMSE00:36:0716,61 km/h
39POMESFlorentMSE00:36:2316,49 km/h
40NEVOUXAymericMSE00:36:2616,47 km/h
41LAJUSFabriceMV100:36:2716,46 km/h
42SOUTIRANSylvainFSE00:36:3016,44 km/h
43ABBALNicolasMSE00:36:4216,35 km/h
44THEUXNicolasMSE00:36:4916,3 km/h
45TROINGéraldMSE00:36:5016,29 km/h
46SALLABERMathieuMSE00:36:5216,27 km/h
47NOGUESBenoitMSE00:36:5316,27 km/h
48HERRYMorganMSE00:36:5316,27 km/h
49PUECHCyrilMV100:36:5416,26 km/h
50BOUSSEMARTPaulMSE00:36:5416,26 km/h
51LACASTERomainMSE00:36:5616,25 km/h
52SALLAKKhalidMV100:36:5716,24 km/h
53LUBETLudovicMSE00:36:5816,23 km/h
54DEGEORGESGeraldMV100:36:5816,23 km/h
55DEJARDINSJeremyMSE00:37:1616,1 km/h
56CAMPIONRaphaëlMSE00:37:2716,02 km/h
57SCHMITTMarcelMSE00:37:3415,97 km/h
58PINEROJuan CarlosMV100:37:4415,9 km/h
59THERMYnicolasMSE00:37:5015,86 km/h
60POUEYNicolasMSE00:37:5415,83 km/h
61LAGARDERENicolasMV200:37:5615,82 km/h
62DALEASClementMSE00:37:5815,8 km/h
63FILLONRaphaelMSE00:37:5815,8 km/h
64LAHOURCADEThibaultMSE00:38:0015,79 km/h
65CANDAUEricMSE00:38:0115,78 km/h
66LASSERRERémiMSE00:38:0115,78 km/h
67LETENDARTGeoffreyMSE00:38:0115,78 km/h
68CRAVEIRONicolasMV100:38:0715,74 km/h
69DEBERGUELaurentMV200:38:0815,73 km/h
70CLAVERIEAlexisMSE00:38:0915,73 km/h
71THOMASAudricMSE00:38:0915,73 km/h
72SAPALLYSébastienMSE00:38:0915,73 km/h
73CHEVALIERFranckMSE00:38:1015,72 km/h
74DUBOURQCorentinMSE00:38:1115,71 km/h
75LACAURomainMSE00:38:1315,7 km/h
76THEVENINBenjaminMSE00:38:2215,64 km/h
77ESTEVEMarcMV200:38:2615,61 km/h
78DUFAUDavidMSE00:38:3515,55 km/h
79PIERRATdenisMV300:38:3615,54 km/h
80RAVIERCyrilMSE00:38:3815,53 km/h
81PINCKMickaelMSE00:38:4115,51 km/h
82DESTANGDimitriMES00:38:4115,51 km/h
83MURAJeanMES00:38:4115,51 km/h
84DUBOSCQFrédéricMV100:38:4215,5 km/h
85BOUDJEMAAOihidMV200:38:4315,5 km/h
86LECLERCDavyMSE00:38:4415,49 km/h
87TOTAINKevinMSE00:38:4415,49 km/h
88MASSOUBREJean ChristopheMSE00:38:4515,48 km/h
89CUYALAJean-BaptisteMSE00:38:4615,48 km/h
90PIRESSEBASTIENMV100:38:4915,46 km/h
91DEBRABANTPatriceMV200:38:5115,44 km/h
92SERRANOAngelFV300:38:5115,44 km/h
93GEVREYAlainMV300:38:5415,42 km/h
94SOUTIRANFabriceMSE00:38:5415,42 km/h
95COMEMichaelMSE00:39:0315,36 km/h
96BERTOLUTTIJeremyMSE00:39:0515,35 km/h
97BORDENAVEBastienFSE00:39:0715,34 km/h
98TORNATORENicolasMSE00:39:1015,32 km/h
99RULLIERPatrickMV200:39:1115,31 km/h
100PINTOPhilippeMV100:39:1215,31 km/h
101HUILLETBasileMSE00:39:1315,3 km/h
102ALGORRYYvesMV100:39:1515,29 km/h
103CROUZETRomainMSE00:39:1815,27 km/h
104BOURGOINSebastienMV100:39:1915,26 km/h
105PEREUILHJean-MarcMV100:39:2215,24 km/h
106DEWALLESPaulMSE00:39:2415,23 km/h
107IGLISIASNathanMSE00:39:2515,22 km/h
108IGLISIASHervéMV200:39:2615,22 km/h
109SOUBIROUFabienMV100:39:2715,21 km/h
110MENDIGUIADiegoMSE00:39:3315,17 km/h
111CHAPEAULisaFSE00:39:3415,16 km/h
112PESCHARDBixenteMES00:39:3815,14 km/h
113IGLESIASLuisMV200:39:4215,11 km/h
114GROSBOISThomasMSE00:39:4215,11 km/h
115LAVALThierryMV100:39:4215,11 km/h
116CLOETHIERRYMV100:39:4415,1 km/h
117PEREZ CASTROArmandoMSE00:39:4715,08 km/h
118BOURDIEUMaximeMSE00:39:4815,08 km/h
119BRANAOlivierMV100:39:4815,08 km/h
120QUEFELEANJean-BaptisteMSE00:39:5015,06 km/h
121PALENGATPatrickMV100:39:5015,06 km/h
122VERGEZDorianMSE00:39:5815,01 km/h
123RICHARDKevinMSE00:40:0015 km/h
124PÉDUSSELLEAymericMSE00:40:0214,99 km/h
125SADYFranckMV200:40:0414,98 km/h
126TUJAGUEFLORIANMSE00:40:0414,98 km/h
127MAUDUITRomualdMV100:40:0514,97 km/h
128DENECHEAUDominiqueMV200:40:0614,96 km/h
129BOUSQUETGaelMSE00:40:1114,93 km/h
130VAN MEIRHAEGUEStevenMV100:40:1114,93 km/h
131BERTOSAlexandreMSE00:40:1214,93 km/h
132ESCALÉPierreMSE00:40:1414,91 km/h
133DUROUPAULMSE00:40:1414,91 km/h
134ROCHERFrançoisMV100:40:2214,86 km/h
135MORELSTANISLASMV100:40:2414,85 km/h
136DAUBAGNAChristopheMV200:40:2514,85 km/h
137CANABATÉDavidMSE00:40:2614,84 km/h
138BOULETAlexandreMV100:40:2614,84 km/h
139POUMESRémiMSE00:40:3014,81 km/h
140DARRASJeromeMV100:40:3814,77 km/h
141FAUCHECharlyMSE00:40:3914,76 km/h
142GRANGEMathieuMSE00:40:4314,74 km/h
143PINELFabienMSE00:40:4414,73 km/h
144COGNEFlorentMSE00:40:4514,72 km/h
145RECAGrégoryMSE00:40:4814,71 km/h
146VANNESSONMarlèneFSE00:40:5014,69 km/h
147LLAREUSRomainMSE00:40:5014,69 km/h
148VERON-DURANDChristopheMV200:40:5214,68 km/h
149GUILHASMathieuMSE00:40:5614,66 km/h
150CRABÉDylanMJU00:40:5914,64 km/h
151HERNANDEZAntoineFV100:41:0214,62 km/h
152ZAHARESCUCristianMSE00:41:0314,62 km/h
153ARAOlivierMV200:41:0814,59 km/h
154DELUBACRÉGISMSE00:41:1014,57 km/h
155BIZPascalMV200:41:1014,57 km/h
156DUCLOSStéphaneFV100:41:1314,56 km/h
157BOUTSARFINEFaridMSE00:41:1414,55 km/h
158JENETSilouaneMSE00:41:1714,53 km/h
159HERNANDEZJérémyMCA00:41:2314,5 km/h
160BERRIEIXSylvieFV200:41:2514,49 km/h
161GORGUESMarieFV100:41:2614,48 km/h
162RAULTStephaneFSE00:41:2814,47 km/h
163BIDOLISJérômeMV100:41:2914,46 km/h
164CLÉMOTPascalMV100:41:3214,45 km/h
165CHANE-TECKCédricMSE00:41:3314,44 km/h
166MELISJulienMSE00:41:3514,43 km/h
167ETCHEBERRYDenisMV100:41:4014,4 km/h
168JUNQUABRUNOMV100:41:4114,39 km/h
169MOULIA PELATFABRICEMSE00:41:4114,39 km/h
170LALANNELudovicMSE00:41:4214,39 km/h
171DESBARATSTHIERRYMV200:41:4214,39 km/h
172ICARTJosephMV200:41:4314,38 km/h
173PUYAUJeromeMV100:41:4514,37 km/h
174CALLEAUJEREMYMSE00:41:4514,37 km/h
175CAZENAVEFlorianMSE00:41:4814,35 km/h
176PICHARDIEHervéMV100:41:4914,35 km/h
177CONANAYMERICMSE00:41:4914,35 km/h
178IDEDavidMV400:41:5114,34 km/h
179GREENThomasMSE00:41:5514,31 km/h
180TAROZZIPascalMV100:41:5914,29 km/h
181ELANThomasMSE00:42:0314,27 km/h
182BASQUINNicolasMSE00:42:0314,27 km/h
183LAGRILLEEricMV200:42:0414,26 km/h
184LACRABEREFabienMV100:42:1214,22 km/h
185ZANINGuillaumeMSE00:42:1314,21 km/h
186POURROUQUETGillesMV100:42:1314,21 km/h
187HENCHEPatrickMV100:42:1414,21 km/h
188DAUBABaptisteMSE00:42:1414,21 km/h
189BOURDONDidierMV300:42:1514,2 km/h
190MURATREJosephMV200:42:1614,2 km/h
191MEYNIERRichardMV100:42:1714,19 km/h
192LABAT-COMESSNoelMV300:42:1814,18 km/h
193MORAGREGAYvesMSE00:42:1914,18 km/h
194FARRILaurentMV100:42:2014,17 km/h
195AUGEStephaneMV100:42:2014,17 km/h
196MARTIJulieFSE00:42:2114,17 km/h
197ORSIKOWSKYAlejandroMSE00:42:2214,16 km/h
198BERNADETOlivierMSE00:42:2414,15 km/h
199COLNOTOlivierMV200:42:2514,15 km/h
200MARTYFabienMSE00:42:2714,13 km/h
201LEBAILLYCedricMV100:42:2914,12 km/h
202LOCOGEAudreyFSE00:42:3214,11 km/h
203DURIEUXElviaFSE00:42:3614,08 km/h
204LETANNEURPierrickMV200:42:4114,06 km/h
205NERIBertrandMSE00:42:4214,05 km/h
206SOUBIRANVincentMSE00:42:4214,05 km/h
207NOBLETSébastienMV200:42:4314,05 km/h
208FERREIRADorianMSE00:42:4814,02 km/h
209VANMEERHAEGHEstephaneMV100:42:5014,01 km/h
210LAGOINCyrilMSE00:42:5513,98 km/h
211BOCQUETLaurentMV200:42:5613,98 km/h
212HERNANDEZAlexandreMSE00:42:5613,98 km/h
213CORTEELAgnesFV100:43:0413,93 km/h
214LEBERCedricMSE00:43:0513,93 km/h
215TUCOUMaximeMV100:43:0513,93 km/h
216BARDOTEricMV100:43:0713,92 km/h
217DALIFARDLionelMV100:43:0913,9 km/h
218CLAUSVincentMSE00:43:0913,9 km/h
219LACOURREGELaurentMV100:43:1113,89 km/h
220ONISKIEWICZyvanMSE00:43:1713,86 km/h
221ERTAURANBernardMV300:43:1713,86 km/h
222DE MARIAAlainMV200:43:1813,86 km/h
223DA SILVAKevinMSE00:43:2113,84 km/h
224JEANWillyMV200:43:2413,82 km/h
225GARCIA RESINOWilliamMV100:43:2513,82 km/h
226LAMUDEALAINMV200:43:2513,82 km/h
227NAYLJeremieMSE00:43:3113,79 km/h
228LABORDEThomasMSE00:43:3113,79 km/h
229DERAMRUBENSMSE00:43:3213,78 km/h
230PEROVICHMickaelMSE00:43:3413,77 km/h
231AERNOUDTMatthieuMSE00:43:3613,76 km/h
232CRAMERAnatoleMV100:43:3613,76 km/h
233HOUSSINOTKEVINMV100:43:3713,76 km/h
234COUILHENOlivierMV100:43:4013,74 km/h
235CHAUVINPierreMSE00:43:4013,74 km/h
236BERTHOUThierryMV200:43:4413,72 km/h
237CARBILLETThomasMSE00:43:5113,68 km/h
238GOMEZMaëlannMJU00:43:5513,66 km/h
239FAURÉStéphanMV100:43:5613,66 km/h
240MONGEYvesMV300:43:5713,65 km/h
241BEKAERTEmmanuelMV100:43:5913,64 km/h
242COUMATESMatthieuMSE00:44:0213,63 km/h
243CARPENTIERDavidMV100:44:0313,62 km/h
244CAPDEBOSCQEricMV200:44:0513,61 km/h
245BORDACHARMICHELMV200:44:0713,6 km/h
246SOLTANILeilaFV200:44:0913,59 km/h
247BAYLIONRomainMSE00:44:0913,59 km/h
248VALLEJOLAURENCEFSE00:44:1113,58 km/h
249TROQUEREAUMatthieuMSE00:44:1113,58 km/h
250CHERETPierreMV200:44:1213,57 km/h
251GUTKNECHTDominiqueMV300:44:1313,57 km/h
252VIGNETTEVincentMSE00:44:1313,57 km/h
253DUTEYMaiderFSE00:44:1413,56 km/h
254SIMONEMathieuMV100:44:1513,56 km/h
255PERJUZANTHIERRYMV200:44:1813,54 km/h
256CAZENAVELudovicMSE00:44:2113,53 km/h
257CEBELLAN MARTAGONManuelMV200:44:2413,51 km/h
258CAMPORAseverineFSE00:44:2713,5 km/h
259ALVAREZJohnMV100:44:3313,47 km/h
260PUYOArnaudMSE00:44:3413,46 km/h
261LUSZCZEKOwenMES00:44:3713,45 km/h
262HERAUDClovisMSE00:44:3713,45 km/h
263SADAOUIKheraFV100:44:3813,44 km/h
264CAZETDavidMV100:44:4013,43 km/h
265MONTAGNETHIERRYMV200:44:4213,42 km/h
266BEDIEEMartineFV300:44:4513,41 km/h
267DUCASSEGuillaumeMSE00:44:4813,39 km/h
268KUNZMANNGaetanMSE00:44:5013,38 km/h
269FREITASFernandoMV100:44:5113,38 km/h
270LADAGNOUSCarolineFSE00:44:5213,37 km/h
271PLORMELEmilienMSE00:44:5213,37 km/h
272D'ARGOUBETFredericMV100:44:5413,36 km/h
273MONTEGUTHiromiFSE00:44:5513,36 km/h
274LABAIGTStéphaneMV100:44:5513,36 km/h
275FARIA FERNANDESAntonioMV200:44:5613,35 km/h
276BOYERSebastienMSE00:44:5713,35 km/h
277ISSALYSCamilleMSE00:45:0113,33 km/h
278LE GOAEROlivierMSE00:45:0413,31 km/h
279SARREFabienMSE00:45:0913,29 km/h
280BERNATASNicolasMV100:45:1213,27 km/h
281PAULJérémyMSE00:45:1313,27 km/h
282MOURLANFRANCKMV100:45:1513,26 km/h
283LLENSEGautierMSE00:45:1813,25 km/h
284CARPENTIERElodieFSE00:45:1813,25 km/h
285THUILLIEZJeromeMSE00:45:2113,23 km/h
286BACHOCJean BaptisteMV100:45:2313,22 km/h
287BREIONXavierMV100:45:3113,18 km/h
288HARISMENDYMichelMSE00:45:3613,16 km/h
289CILLUFFOGaëtanMSE00:45:4413,12 km/h
290BONZOMDavidMV100:45:4913,1 km/h
292LE BOLLOCHBrunoMV200:45:5813,05 km/h
293ARRIBOTMélanieFSE00:46:0013,04 km/h
294LE GUERYvesMV200:46:0313,03 km/h
295ALEMANNIPhilippeMV200:46:0513,02 km/h
296BERNADETJohanMSE00:46:0713,01 km/h
297YONNETDavidMV100:46:1013 km/h
298BOSCHETTIPatrickMV100:46:1112,99 km/h
299CAMPAGNEPatrickMV200:46:1512,97 km/h
300LESCUDEHervéMSE00:46:1712,96 km/h
301RENARDOlivierMV100:46:1712,96 km/h
302GERAULTSylvainMV300:46:1712,96 km/h
303MUCKEThierryMV200:46:1912,95 km/h
304LATEULADEFranckMV100:46:2112,94 km/h
305GUILLOTINFranckMV200:46:2212,94 km/h
306TOURNEURJean FrancoisMV100:46:2612,92 km/h
307VALLIOTVincentMSE00:46:2612,92 km/h
308LETUEEricMV200:46:3012,9 km/h
309LABBÉVirginieFSE00:46:3112,9 km/h
310GAREAUMariaFV100:46:3312,89 km/h
311RIPAULTPhilippeMV100:46:3412,88 km/h
312DESCHAMPSAnatoleMV200:46:4012,86 km/h
313CHATENETNicolasMSE00:46:4212,85 km/h
314HUGUETCyrilMSE00:46:4212,85 km/h
315LAPORTECedricMSE00:46:4212,85 km/h
316BARRUCQJean-bernardMV300:46:4512,83 km/h
317BAGNAROSAGuillaumeMV100:46:4612,83 km/h
318PEDARRIEUSylvieFV100:46:4712,83 km/h
319LALANNEFREDERICMV100:46:5212,8 km/h
320MORISSETJulienMES00:46:5412,79 km/h
321BIDEAUFredericMV200:46:5512,79 km/h
322MONTELNicolasMV100:46:5612,78 km/h
323BIHRYLaurentMV100:46:5612,78 km/h
324FLORENCE BAREILLESJeanMV400:46:5812,78 km/h
325LAHONFranckMV100:46:5912,77 km/h
326BOUKAMELDjannetFSE00:47:0412,75 km/h
327KHEYIADNANEFSE00:47:1212,71 km/h
328ARCISVANESSAFSE00:47:1412,7 km/h
329BRUNELPHILIPPEMV200:47:1512,7 km/h
330AUDRYGéraldMV100:47:1712,69 km/h
331FREULONEstelleFSE00:47:2212,67 km/h
332LABREVOIRJessyMSE00:47:2312,66 km/h
333DOUMENJOUChristineFV200:47:2412,66 km/h
334LACROUTSBaptisteMV100:47:2612,65 km/h
335VELASCOCharlotteFCA00:47:3012,63 km/h
336VELASCOHerveMV100:47:3112,63 km/h
337DUFAUCAROLINEFSE00:47:3112,63 km/h
338DEL REGNODAVIDMV100:47:3212,62 km/h
339MENDOZAMathieuMSE00:47:3212,62 km/h
340GOUVERTSimonMSE00:47:3512,61 km/h
341PIVERTTamaraFSE00:47:3612,61 km/h
342MADELLouisMSE00:47:3912,59 km/h
343ALVESJulienMSE00:47:4012,59 km/h
344BONNAFONTThomasMSE00:47:4112,58 km/h
345GARCIAVicenteMSE00:47:4512,57 km/h
346KRUPANathanMSE00:47:4512,57 km/h
347BALDAQUINThomasMSE00:47:4512,57 km/h
348ANDREUStephanieFSE00:47:4712,56 km/h
349ITHIEROlivierMV100:47:4812,55 km/h
350HAUREDominiqueMV100:47:5112,54 km/h
351BESOMBESJérômeMV100:47:5412,53 km/h
352GASPARDSelouaFSE00:47:5512,52 km/h
353BRIEUANTOINEMV200:47:5712,51 km/h
354GOUACHEMarinaFV100:47:5812,51 km/h
355D'ELIAPietroMV100:47:5912,5 km/h
356AVELLAAntoineMSE00:47:5912,5 km/h
357PEDARRIEUBrunoMV200:48:0012,5 km/h
358GENSONGérardMV200:48:0212,49 km/h
359BEGELChantalFV100:48:0312,49 km/h
360GROSSIAMarionFSE00:48:0412,48 km/h
361AMIELLPatrickMV200:48:0512,48 km/h
362DUBOISPhilippeMV200:48:0712,47 km/h
363LE CALLONECTristanMSE00:48:0812,47 km/h
364LE NÉZETBASTIENMSE00:48:1012,46 km/h
365GALIBERTOlivierMSE00:48:1112,45 km/h
366COURREGESJulienMV100:48:1312,44 km/h
367LE STERLAPierreMV100:48:1412,44 km/h
368RISTORDLaurentMV100:48:2212,41 km/h
369LÉAUMathildeFV100:48:2312,4 km/h
370YELLOUZPatriceMV200:48:2412,4 km/h
371ALCOZPhilippeMV100:48:2612,39 km/h
372BONNAVAUDPhilippeMV300:48:2612,39 km/h
373ESPAGNOUMaxenceMCA00:48:2912,38 km/h
374CLAVEAgnesFV100:48:3412,35 km/h
375MATHIEUFERNANDMV200:48:3712,34 km/h
376AUBAREDEWilliamMSE00:48:4012,33 km/h
377PHILIPPEGaëlMSE00:48:4612,3 km/h
378LANSALOT-GNEChristianMV300:48:5112,28 km/h
379GOUTMathildeFES00:48:5312,27 km/h
380DUBUCQDOMINIQUEMV300:48:5312,27 km/h
381POCQ-TALRICHCélineFV100:49:0012,24 km/h
382TEXIERFabienMSE00:49:0112,24 km/h
383BRIEUBRUNOMV100:49:0112,24 km/h
384ADNOTDavidMV200:49:0712,22 km/h
385DURANTONPhilippeMV100:49:1312,19 km/h
386BERNARDBenjaminMSE00:49:1612,18 km/h
387VERNIERHELENEFV100:49:1812,17 km/h
388DUCAMPChristianMV200:49:2512,14 km/h
389LAFONTStéphanieFV100:49:2512,14 km/h
390CALLEDEMartineFV100:49:2512,14 km/h
391SARTOLOUGillesMSE00:49:2712,13 km/h
392ESNielsMSE00:49:3412,1 km/h
393ALCORTANellyFSE00:49:3612,1 km/h
394LOSSPatrickMV300:49:4412,06 km/h
395ROUQUETTEMichelMV300:49:4612,06 km/h
396DOUSSAU DE GUYONNETAlbanMV100:49:4612,06 km/h
397TERNISFlorentMSE00:49:4612,06 km/h
398BENETStephaniaFV100:49:4612,06 km/h
399GAPAILLARDGilbertMV400:49:4712,05 km/h
400YAHIATENEKarimMSE00:49:4812,05 km/h
401LAGIEREBernardMV200:49:4912,04 km/h
402LECLERCQPaulineFSE00:49:4912,04 km/h
403AMORIMMariaFV200:49:5012,04 km/h
404SUBERBIELLEFrancoisMV100:49:5012,04 km/h
405GALINDOFlorianMSE00:49:5112,04 km/h
406HILLOULINPhilippeMV200:49:5712,01 km/h
407PINELLucieFSE00:49:5812,01 km/h
408LE CAMBenoitMV100:49:5812,01 km/h
409RENTCHLERMarianneFSE00:49:5912 km/h
410BRANDELABlandineFV100:50:0211,99 km/h
411BLEURémiMES00:50:0911,96 km/h
412LANOUGUEREDanielMV100:50:1311,95 km/h
413DARRACQJulienMSE00:50:1311,95 km/h
414CARSUZAANICOLASMSE00:50:1611,94 km/h
415ROBICHONNatachaFV100:50:1811,93 km/h
416CHATELETJean-FrançoisMSE00:50:1911,92 km/h
417COUSSYLAURENTMV100:50:1911,92 km/h
418CERETTANicolasMSE00:50:2011,92 km/h
419VERHEYOENMélanieFV100:50:2011,92 km/h
420QUILLACQCamilleFJU00:50:2211,91 km/h
421QUILLACQPIERREMV200:50:2311,91 km/h
422LEXTRAITOlivierMV200:50:2611,9 km/h
423BELLANAnne-MarieFV300:50:2811,89 km/h
424GENEBESNathalieFSE00:50:3911,85 km/h
425LAUNAYBASTIENMSE00:50:4611,82 km/h
426TRESMONTANMarieFV100:50:4611,82 km/h
427PEYRI CAPERAJulienMSE00:50:4911,81 km/h
428MESSAUTFrancoisMSE00:50:4911,81 km/h
429BAUDOUXJean YvesMV300:50:5411,79 km/h
430TINLOTJérémyMSE00:50:5411,79 km/h
431JEUDYDominiqueMV200:51:0311,75 km/h
432VOUGOCarlosMSE00:51:0411,75 km/h
433MINVIELLEDidierMV100:51:0411,75 km/h
434TREHINSTEPHANEMV100:51:0511,75 km/h
435LARRANGStephanieFV100:51:0611,74 km/h
436ARNAUDINJean ClaudeMV300:51:0711,74 km/h
437MARTINS SUPERSACLindaFV100:51:0811,73 km/h
438DESJARDINSBernardMV100:51:0811,73 km/h
439POEYMARIELOURDESFV100:51:1411,71 km/h
440CANDEHORERaymondeFV300:51:1711,7 km/h
441NAVARROAntoineMV100:51:1711,7 km/h
442PESTELFabienMSE00:51:1911,69 km/h
443SEGOTJean-MarieMV400:51:2011,69 km/h
444LUSZCZEKTinoMV100:51:2211,68 km/h
445NAYLDidierMV300:51:2311,68 km/h
446HILLOOUHerveMV100:51:2511,67 km/h
447LARRANAGAKattalinFSE00:51:2811,66 km/h
448BROCASChristineFSE00:51:4411,6 km/h
449EBERJacquesMSE00:51:4511,59 km/h
450FERNANDEZLoreaFJU00:51:4711,59 km/h
451THEAUFrancisMV400:51:4811,58 km/h
452NOVAISSarahFSE00:51:5011,58 km/h
453LUSZCZEKEmilyFJU00:51:5011,58 km/h
454ERTAURANJean-ClaudeMV300:51:5711,55 km/h
455COTEStéphanMV100:51:5811,55 km/h
456FONTANGCyrilMSE00:52:0411,52 km/h
457ROSSATOOlivierMV100:52:0711,51 km/h
458DOMOKOSJulienMSE00:52:0811,51 km/h
459SALISFabienFV100:52:1211,49 km/h
460HAMELCarolineFSE00:52:1311,49 km/h
461CHAMAYOUBenoitMV100:52:1511,48 km/h
462AUTHIELouisMSE00:52:1611,48 km/h
463STEYERPatrickMV100:52:2111,46 km/h
464DEMESSEStellaFV100:52:2411,45 km/h
465BENEDETTIThierryMV100:52:2711,44 km/h
466DURANDAurelieFSE00:52:3111,42 km/h
467MEDACOAnthonyMSE00:52:3411,41 km/h
468RENAUT DEFRENJulietteFCA00:52:3611,41 km/h
469DOS SANTOSCHRISTIOPHEMV100:52:3711,4 km/h
470VALHEREDidierMV200:52:3911,4 km/h
471GABASTOUKathyFV100:52:4311,38 km/h
472LAFORETChristopheMV100:52:4511,37 km/h
473SÈREVirginieFV200:52:5311,35 km/h
474TEULESophieFSE00:52:5811,33 km/h
475BOUNET AUDAPValérieFV100:53:0011,32 km/h
476AUDAPVincentMV200:53:0111,32 km/h
477CARRIERBenoitMV100:53:1311,27 km/h
478GONDOINEmilyFSE00:53:1911,25 km/h
479MAHIEUXAntoineMV100:53:1911,25 km/h
480LE BORGNEJulieFSE00:53:2711,23 km/h
481LE BORGNEOlivierMV100:53:2711,23 km/h
482MALASCRABESVirginieFSE00:53:3011,21 km/h
483POMESPierreMV300:53:3511,2 km/h
484DECARTELLOIrenaMSE00:53:4011,18 km/h
485DUPONTCathyFV200:53:4711,16 km/h
486ETCHECOPARCedricMSE00:53:5311,14 km/h
487HOURCADEYvesMV300:53:5411,13 km/h
488LABONNEBenjaminMSE00:53:5911,11 km/h
489COTÉVincentMSE00:54:0311,1 km/h
490RAYNAUDLaetitiaFSE00:54:0411,1 km/h
491ZANONThierryMV200:54:1111,07 km/h
492BERRIEIXYVESMV200:54:1711,05 km/h
493DUFOURCQJulienMSE00:54:1911,05 km/h
494VELONERA GARCIADOHNETTEFV100:54:1911,05 km/h
495LEBOEUFCLEMENCEFSE00:54:1911,05 km/h
496PIRESMaitéFV300:54:2211,04 km/h
497SALHARANGMICHELMV200:54:2611,02 km/h
498BARBEJean-MarcMV300:54:2711,02 km/h
499BOUSQUELudovicMSE00:54:3111,01 km/h
500DESREMAUXElineFJU00:54:3211 km/h
501CAZAUMAYOUMarie-ChristineFV100:54:4110,97 km/h
502CARPENTIERPhilippeMV200:54:4110,97 km/h
503HOUGAMichelMV400:54:5410,93 km/h
504DELORMEPhilippeMV200:54:5810,92 km/h
505UZUREAULionelMV100:54:5810,92 km/h
506PALOQUEEmilieFSE00:54:5910,91 km/h
507MUCKENathalieFV200:55:0210,9 km/h
508DUPREPhilippeMV200:55:0910,88 km/h
509CAZAUXPriscaFV100:55:2610,82 km/h
510BAZESBenjaminMSE00:55:2610,82 km/h
511MARTINIECaroleFV200:55:3510,79 km/h
512DUPOUETAudreyFSE00:55:4310,77 km/h
513GERBITHAngelineFSE00:55:4310,77 km/h
514REYPaulineFSE00:55:4610,76 km/h
515SUPERVIÈLEFabienneFSE00:55:5410,73 km/h
516LATOURSabrinaFV100:55:5510,73 km/h
517LAGRÈZEJérômeMSE00:55:5710,72 km/h
518SAINT-MARTINFrancisMV300:56:0810,69 km/h
519RAMIERJulieFSE00:56:0810,69 km/h
520HENNEQUINCINDYFSE00:56:1210,68 km/h
521DEVILLEPOIXEmmanuelMV200:56:1510,67 km/h
522VIGNEROLSophieFSE00:56:1510,67 km/h
523HANGAREmmaFES00:56:1810,66 km/h
524SOARESManuelMV100:56:2110,65 km/h
525JOSEPHJulienMV100:56:2510,64 km/h
526PUYAUJean-PaulMV200:56:2510,64 km/h
527DIMETStephanieFV100:56:2910,62 km/h
528GUITTONAnnaFV100:56:2910,62 km/h
529LARBIOUJean-ClaudeMV100:56:2910,62 km/h
530YVENAT GARDERESAudreyFSE00:56:3310,61 km/h
531DOMENGELaurentMV200:56:3310,61 km/h
532DUFEYTEMARIE-PIERREFV300:56:4310,58 km/h
533PASQUETMARIEFSE00:56:5210,55 km/h
534GALYSabineFV100:56:5410,54 km/h
535ELKAIMArnaudMV100:56:5610,54 km/h
536CASTAGNÉLaurenceFSE00:56:5810,53 km/h
537LOSTECathyFSE00:57:0010,53 km/h
538DONAZZANAlexandreMSE00:57:0110,52 km/h
539PRATFrankMV100:57:0110,52 km/h
540RAYNAUDBenjaminMSE00:57:0310,52 km/h
541ERRAMOUSPÉPascalMV100:57:1810,47 km/h
542RUNCHMAN-PETITAndrewMV200:57:1810,47 km/h
543BARZUJulieFSE00:57:2010,47 km/h
544LAMARQUECecileFV100:57:2710,44 km/h
545ESPAGNOU-BARRAQUEJeromeMV100:57:2910,44 km/h
546LEQUESNESébastienMV100:57:2910,44 km/h
547BONAJean NoëlMV200:57:2910,44 km/h
548KEOWNRachelFSE00:57:4010,4 km/h
549LATUBERNEValerieFV100:57:4510,39 km/h
550SAINTE FAUSTEValérieFSE00:57:5710,35 km/h
551RUNCHMAN-PETITLaurenceFV200:57:5810,35 km/h
552BACHOCLaurenceFV100:57:5910,35 km/h
553MAROLLESRaphaëlMV100:58:0010,34 km/h
554BENCHEIKHRachidMV300:58:0710,32 km/h
555CABELionelMV100:58:0710,32 km/h
556RAMAROSONCorinneFV200:58:1110,31 km/h
557REYGaelleFV100:58:2010,29 km/h
558MANESCAUFABIENNEFV200:58:2010,29 km/h
559LURDOSFrédéricMV100:58:2310,28 km/h
560NICOLASClaudeMV300:58:2410,27 km/h
561DUPRECAROLEFV100:58:2510,27 km/h
562CORSANDDANIELMV200:58:2610,27 km/h
563BATTLEAnnabelleFV100:58:2710,27 km/h
564OLIVEIRASabrinaFV100:58:4310,22 km/h
565ESPILONDOMarionFSE00:58:4410,22 km/h
566MATHIEUJean ClaudeMV400:58:4510,21 km/h
567CONANCécileFV100:58:4610,21 km/h
568PERALTAValérieFV200:58:5010,2 km/h
569FILIPETheoMJU00:58:5210,19 km/h
570LARCHERMarieFCA00:58:5310,19 km/h
571HAUSSOULLIEZAlexisMSE00:58:5810,18 km/h
572PLACECatherineFV200:59:0510,16 km/h
573FERNANDEZCamilleFSE00:59:1110,14 km/h
574CHATILLONGeraldineFV100:59:2110,11 km/h
575COSTEDOATMarie FranceFV200:59:2210,11 km/h
576JOUANCHINSandrineFV100:59:2510,1 km/h
577LAGUIONIEAudreyFV100:59:2510,1 km/h
578TREMEAGenevièveFV200:59:2810,09 km/h
579SAN JOSÉMathildeFES00:59:3110,08 km/h
580ALVESMarjorieFSE00:59:3710,06 km/h
581LADEVEZENathalieFV100:59:4310,05 km/h
582ARTOCamilleFSE00:59:4310,05 km/h
583LAFONTANLaikaFSE00:59:4910,03 km/h
584VINATIERCorinneFV200:59:5010,03 km/h
585DAVANCENSChantalFV100:59:5210,02 km/h
586TREMEAJean-michelMV200:59:5310,02 km/h
587BORDENAVEEmilieFSE00:59:5610,01 km/h
588COTÉThierryMV201:00:0010 km/h
589LAVIGNEMarie-CatherineFV301:00:0110 km/h
590CHAUMETTEChristelFV101:00:0110 km/h
591DUBOUCHFranckMV101:00:029,99 km/h
592ZUCKMEYERMarionFV301:00:039,99 km/h
593LACABARATSHeleneFV101:00:149,96 km/h
594DEVILLEPOIXMaryseFV101:00:359,9 km/h
595MENGELLEFlorenceFSE01:00:489,87 km/h
596LITAIZEPatrickMV301:00:589,84 km/h
597CAMAREROBénédicteFSE01:01:069,82 km/h
598HEUZÉCorinneFV201:01:359,74 km/h
599MORGANDElodieFSE01:01:409,73 km/h
600SAINT-MARTINJean-LucMV301:01:439,72 km/h
601INCONNUInconnuMV201:01:489,71 km/h
602LABASTIEIsabelleFV201:01:519,7 km/h
603BAAOUINadegeFV101:02:229,62 km/h
604LOUSTALETOlivierMV201:02:339,59 km/h
605DAVANCENSElisaFJU01:02:419,57 km/h
606MUNARRIZJean marcMV201:03:029,52 km/h
607AUBERTVirginieFV101:03:259,46 km/h
608VANSTEENEYannickFV201:03:499,4 km/h
609BERTRANSandrineFV101:04:079,36 km/h
610MESPLOUELISABETHFV201:04:109,35 km/h
611FILLATREvirginieFSE01:04:149,34 km/h
612BOUVARDElsaFSE01:04:209,33 km/h
613LASCAUDNathalieFV201:04:409,28 km/h
614RIMBOURGSarahFSE01:05:299,16 km/h
615PARÉFrancineF-01:05:399,14 km/h
616BIVERPierreMV201:05:429,13 km/h
617MACRONALDPaulineFV101:05:519,11 km/h
618VIAUDPhilippeMV301:06:009,09 km/h
619GRAEFFPhilippeMV301:06:129,06 km/h
620SAINT-MARTINAudeFV101:07:018,95 km/h
621LACROIXLAURAFSE01:07:428,86 km/h
622MONTAUBRICFLORENCEFV201:07:438,86 km/h
623HANNANElaineFSE01:08:168,79 km/h
624PEREZmoniqueFV301:08:448,73 km/h
625HOANGNathalieFSE01:09:188,66 km/h
626NOCETOEstelleFSE01:15:157,97 km/h
 Pas de résultats